IW7DVM-13 Weather Reports


Display with metric or nautical units.
time (UTC)temp
F
wind
direction
speed
MPH
gust
MPH
rain 1hr
in
rain 24hr
in
rain mn
in
humidity
%
barometer
mb
20260508014503 60 48 4.0 6.0 0.00 0.02 0.00 71 1006.5
20260508014003 60 47 3.0 6.0 0.00 0.02 0.00 71 1006.5
20260508013503 61 32 3.0 8.0 0.00 0.02 0.00 71 1006.4
20260508013003 61 44 4.0 7.0 0.00 0.02 0.00 71 1006.4
20260508012503 61 42 4.0 8.0 0.00 0.02 0.00 71 1006.4
20260508012003 61 54 4.0 9.0 0.00 0.02 0.00 71 1006.6
20260508011503 61 48 4.0 11.0 0.00 0.02 0.00 71 1006.6
20260508011003 61 50 3.0 6.0 0.00 0.02 0.00 71 1006.6
20260508010503 61 46 3.0 5.0 0.00 0.04 0.00 71 1006.7
20260508010003 61 54 4.0 12.0 0.00 0.04 0.00 71 1006.6
20260508005503 61 60 4.0 12.0 0.00 0.04 0.00 71 1006.6
20260508005003 61 56 4.0 11.0 0.00 0.04 0.00 71 1006.7
20260508004503 60 51 4.0 10.0 0.00 0.04 0.00 71 1006.7
20260508004003 60 55 3.0 5.0 0.00 0.04 0.00 71 1006.7
20260508003503 60 49 4.0 7.0 0.00 0.04 0.00 71 1006.7
20260508003003 60 50 5.0 9.0 0.00 0.04 0.00 71 1006.8
20260508002503 60 51 6.0 9.0 0.00 0.04 0.00 71 1007.0
20260508002003 60 51 6.0 11.0 0.00 0.04 0.00 71 1007.1
20260508001503 60 43 5.0 10.0 0.00 0.04 0.00 71 1007.0
20260508001003 60 46 5.0 9.0 0.00 0.04 0.00 70 1007.2
20260508000503 60 48 6.0 11.0 0.00 0.04 0.00 70 1007.2
20260508000003 60 45 5.0 9.0 0.00 0.04 0.00 70 1007.4
20260507235503 60 45 4.0 8.0 0.00 0.04 0.00 70 1007.5
20260507235003 60 44 4.0 9.0 0.00 0.04 0.00 70 1007.6
20260507234503 60 50 4.0 9.0 0.00 0.04 0.00 70 1007.7
20260507234003 60 44 3.0 7.0 0.00 0.04 0.00 70 1007.7
20260507233503 60 41 3.0 7.0 0.00 0.04 0.00 70 1007.8
20260507233003 60 47 5.0 9.0 0.00 0.04 0.00 69 1007.8
20260507232503 60 46 5.0 9.0 0.00 0.04 0.00 69 1007.9
20260507232003 60 53 5.0 9.0 0.00 0.04 0.00 69 1008.0
20260507231503 60 44 5.0 10.0 0.00 0.04 0.00 69 1008.1
20260507231003 60 45 2.0 6.0 0.00 0.04 0.00 69 1008.2
20260507230503 60 34 3.0 6.0 0.00 0.04 0.00 69 1008.4
20260507230003 59 31 2.0 5.0 0.00 0.04 0.00 69 1008.4
20260507225503 59 30 2.0 5.0 0.00 0.04 0.00 69 1008.5
20260507225003 59 30 4.0 6.0 0.00 0.04 0.00 69 1008.6
20260507224504 59 24 3.0 6.0 0.00 0.04 0.00 69 1008.6
20260507224003 59 31 2.0 4.0 0.00 0.04 0.00 69 1008.6
20260507223503 59 24 3.0 7.0 0.00 0.04 0.00 69 1008.7
20260507223003 59 25 4.0 6.0 0.00 0.04 0.00 69 1008.6
20260507222503 59 23 3.0 4.0 0.00 0.04 0.00 68 1008.7
20260507222003 59 24 2.0 4.0 0.00 0.04 0.00 68 1008.7
20260507221503 59 27 1.0 3.0 0.00 0.04 0.00 68 1008.8
20260507221003 60 41 1.0 4.0 0.00 0.04 0.00 68 1008.8
20260507220503 60 23 1.0 3.0 0.00 0.04 0.00 67 1008.8
20260507220003 60 22 2.0 4.0 0.00 0.04 0.00 67 1008.7
20260507215503 60 23 2.0 4.0 0.00 0.04 0.04 67 1008.7
20260507215003 60 24 2.0 4.0 0.00 0.04 0.04 67 1008.7
20260507214503 60 32 2.0 4.0 0.00 0.04 0.04 67 1008.7
20260507214003 60 24 2.0 4.0 0.00 0.04 0.04 67 1008.8
20260507213503 60 24 2.0 4.0 0.00 0.04 0.04 67 1008.8
20260507213003 60 22 2.0 4.0 0.00 0.04 0.04 68 1008.8
20260507212503 60 24 2.0 4.0 0.00 0.04 0.04 68 1008.8
20260507212003 60 17 1.0 3.0 0.00 0.04 0.04 68 1008.8
20260507211503 61 25 1.0 3.0 0.00 0.04 0.04 68 1008.8
20260507211003 61 21 1.0 4.0 0.00 0.04 0.04 67 1008.7
20260507210503 62 24 2.0 4.0 0.00 0.04 0.04 67 1008.7
20260507210003 62 22 2.0 3.0 0.00 0.04 0.04 66 1008.8
20260507205503 62 29 1.0 4.0 0.00 0.04 0.04 66 1008.8
20260507205003 62 43 2.0 5.0 0.00 0.04 0.04 66 1008.9
20260507204503 62 45 2.0 5.0 0.00 0.04 0.04 66 1008.9
20260507204003 62 51 2.0 6.0 0.00 0.04 0.04 66 1008.8
20260507203503 63 42 1.0 4.0 0.00 0.04 0.04 67 1009.0
20260507203003 63 76 2.0 5.0 0.00 0.04 0.04 67 1009.0
20260507202503 63 83 1.0 5.0 0.00 0.04 0.04 68 1008.9
20260507202003 63 70 1.0 5.0 0.00 0.04 0.04 68 1009.0
20260507201503 62 69 0.0 4.0 0.00 0.04 0.04 69 1009.1
20260507201003 62 74 1.0 4.0 0.00 0.04 0.04 70 1009.1
20260507200503 62 69 1.0 4.0 0.00 0.04 0.04 70 1009.2
20260507200003 63 59 2.0 5.0 0.00 0.04 0.04 70 1009.3
20260507195503 63 66 2.0 4.0 0.00 0.04 0.04 70 1009.3
20260507195003 63 52 1.0 4.0 0.00 0.04 0.04 71 1009.3
20260507194503 63 61 1.0 6.0 0.00 0.04 0.04 71 1009.3
20260507194003 63 72 0.0 4.0 0.00 0.04 0.04 71 1009.3
20260507193503 63 88 0.0 3.0 0.00 0.04 0.04 71 1009.1
20260507193003 63 73 1.0 5.0 0.00 0.04 0.04 71 1009.1
20260507192503 63 77 1.0 5.0 0.00 0.04 0.04 71 1009.2
20260507192003 63 68 0.0 4.0 0.00 0.04 0.04 71 1009.2
20260507191503 63 82 1.0 4.0 0.00 0.04 0.04 71 1009.3
20260507191003 63 73 1.0 4.0 0.00 0.04 0.04 70 1009.1
20260507190503 63 68 1.0 4.0 0.00 0.04 0.04 70 1009.0
20260507190004 63 71 1.0 4.0 0.00 0.04 0.04 70 1009.0
20260507185503 63 79 1.0 3.0 0.00 0.04 0.04 70 1009.0
20260507185003 63 62 1.0 6.0 0.00 0.04 0.04 70 1009.1
20260507184503 63 63 2.0 7.0 0.00 0.04 0.04 70 1009.0
20260507184003 64 65 1.0 3.0 0.00 0.04 0.04 69 1009.0
20260507183503 64 54 0.0 3.0 0.00 0.04 0.04 69 1009.4
20260507183003 64 83 1.0 4.0 0.00 0.04 0.04 69 1009.3
20260507182503 64 97 1.0 5.0 0.00 0.04 0.04 69 1009.3
20260507182003 64 85 1.0 4.0 0.00 0.04 0.04 69 1009.3
20260507181503 64 91 1.0 4.0 0.00 0.04 0.04 69 1009.4
20260507181003 64 104 1.0 4.0 0.00 0.04 0.04 69 1009.3
20260507180503 64 114 0.0 4.0 0.00 0.04 0.04 70 1009.3
20260507180003 64 79 0.0 2.0 0.00 0.04 0.04 70 1009.3
20260507175503 64 71 1.0 6.0 0.00 0.04 0.04 70 1009.1
20260507175003 64 89 1.0 6.0 0.00 0.04 0.04 70 1008.9
20260507174503 64 70 0.0 4.0 0.00 0.04 0.04 70 1008.9
20260507174003 64 113 1.0 3.0 0.00 0.04 0.04 70 1009.0
20260507173503 64 116 1.0 7.0 0.00 0.04 0.04 70 1009.1
20260507173003 65 94 1.0 5.0 0.00 0.04 0.04 70 1009.0
20260507172505 65 77 1.0 5.0 0.00 0.04 0.04 70 1008.9
20260507172003 65 96 1.0 4.0 0.00 0.04 0.04 70 1009.1
20260507171503 65 99 2.0 8.0 0.00 0.04 0.04 70 1009.0
20260507171003 65 153 2.0 5.0 0.00 0.04 0.04 70 1008.8
20260507170503 65 123 1.0 6.0 0.00 0.04 0.04 70 1009.0
20260507170003 65 100 1.0 5.0 0.00 0.04 0.04 70 1008.9
20260507165503 65 123 2.0 7.0 0.00 0.04 0.04 69 1009.0
20260507165003 65 103 1.0 2.0 0.00 0.04 0.04 69 1009.1
20260507164503 66 117 2.0 6.0 0.00 0.04 0.04 69 1009.3
20260507164003 66 146 1.0 7.0 0.00 0.04 0.04 68 1009.3
20260507163503 66 98 2.0 6.0 0.00 0.04 0.04 68 1009.2
20260507163003 66 104 2.0 6.0 0.00 0.04 0.04 67 1009.3
20260507162503 67 130 2.0 10.0 0.00 0.04 0.04 67 1009.4
20260507162003 67 118 1.0 5.0 0.00 0.04 0.04 67 1009.4
20260507161503 67 138 2.0 7.0 0.00 0.04 0.04 66 1009.2
20260507161003 67 135 2.0 6.0 0.00 0.04 0.04 66 1009.1
20260507160504 67 134 3.0 9.0 0.00 0.04 0.04 66 1009.0
20260507160003 67 138 3.0 13.0 0.00 0.04 0.04 65 1009.0
20260507155503 68 125 4.0 12.0 0.00 0.04 0.04 64 1009.1
20260507155003 68 83 2.0 6.0 0.00 0.04 0.04 65 1009.1
20260507154503 68 98 3.0 9.0 0.00 0.04 0.04 64 1009.0
20260507154003 68 120 3.0 11.0 0.00 0.04 0.04 64 1009.1
20260507153504 68 138 3.0 9.0 0.00 0.04 0.04 65 1009.2
20260507153003 68 115 2.0 7.0 0.00 0.04 0.04 64 1009.2
20260507152503 68 123 3.0 10.0 0.00 0.04 0.04 64 1009.3
20260507152003 68 124 2.0 9.0 0.00 0.04 0.04 63 1009.3
20260507151503 69 120 3.0 10.0 0.00 0.04 0.04 63 1009.4
20260507151003 69 131 2.0 9.0 0.00 0.04 0.04 62 1009.4
20260507150503 68 138 3.0 9.0 0.00 0.04 0.04 62 1009.4
20260507150003 68 129 3.0 11.0 0.00 0.04 0.04 63 1009.5
20260507145503 69 136 3.0 9.0 0.00 0.04 0.04 62 1009.6
20260507145003 69 132 2.0 8.0 0.00 0.04 0.04 63 1009.6
20260507144503 69 129 3.0 10.0 0.00 0.04 0.04 63 1009.6
20260507144003 69 137 3.0 9.0 0.00 0.04 0.04 63 1009.5
20260507143503 69 153 2.0 9.0 0.00 0.04 0.04 63 1009.5
20260507143003 69 134 3.0 10.0 0.00 0.04 0.04 64 1009.6
20260507142503 69 139 3.0 9.0 0.00 0.04 0.04 64 1009.6
20260507142003 69 134 2.0 7.0 0.00 0.04 0.04 64 1009.7
20260507141503 69 135 2.0 8.0 0.00 0.04 0.04 65 1009.8
20260507141003 69 131 2.0 8.0 0.00 0.04 0.04 65 1009.9
20260507140503 69 145 2.0 7.0 0.00 0.04 0.04 66 1010.0
20260507140003 69 138 3.0 9.0 0.00 0.04 0.04 66 1010.0
20260507135503 70 137 2.0 11.0 0.00 0.04 0.04 66 1010.0
20260507135003 70 153 1.0 4.0 0.00 0.04 0.04 67 1009.9
20260507134503 70 137 1.0 6.0 0.00 0.04 0.04 68 1010.0
20260507134003 69 155 2.0 6.0 0.00 0.04 0.04 68 1009.9
20260507133503 69 149 3.0 9.0 0.00 0.04 0.04 68 1010.1
20260507133003 69 152 2.0 7.0 0.00 0.04 0.04 69 1010.0
20260507132503 68 147 3.0 8.0 0.00 0.04 0.04 69 1009.9
20260507132003 68 144 4.0 9.0 0.00 0.04 0.04 69 1010.1
20260507131503 68 146 3.0 8.0 0.00 0.04 0.04 70 1010.2
20260507131003 67 150 6.0 11.0 0.00 0.04 0.04 70 1010.2
20260507130503 67 142 6.0 11.0 0.00 0.04 0.04 70 1010.3
20260507130003 68 160 4.0 10.0 0.00 0.04 0.04 71 1010.2
20260507125503 67 163 4.0 11.0 0.00 0.04 0.04 71 1010.3
20260507125003 67 151 5.0 12.0 0.00 0.04 0.04 71 1010.3
20260507124503 67 145 6.0 11.0 0.00 0.04 0.04 71 1010.4
20260507124003 67 149 5.0 12.0 0.00 0.04 0.04 71 1010.4
20260507123503 67 150 4.0 8.0 0.00 0.04 0.04 71 1010.5
20260507123003 67 143 4.0 9.0 0.00 0.04 0.04 71 1010.6
20260507122503 67 149 4.0 11.0 0.00 0.04 0.04 71 1010.6
20260507122004 67 144 5.0 11.0 0.00 0.04 0.04 71 1010.4
20260507121503 67 153 5.0 12.0 0.00 0.04 0.04 71 1010.6
20260507121003 67 162 4.0 8.0 0.00 0.04 0.04 71 1010.5
20260507120503 66 151 6.0 11.0 0.00 0.04 0.04 71 1010.6
20260507120004 67 143 7.0 13.0 0.00 0.04 0.04 71 1010.6
20260507115503 67 141 5.0 13.0 0.00 0.04 0.04 71 1010.7
20260507115003 68 160 3.0 9.0 0.00 0.04 0.04 71 1011.0
20260507114503 67 160 4.0 8.0 0.00 0.04 0.04 71 1011.1
20260507114003 67 153 4.0 11.0 0.00 0.04 0.04 72 1011.0
20260507113503 67 161 4.0 11.0 0.00 0.04 0.04 72 1011.1
20260507113003 67 168 2.0 6.0 0.00 0.04 0.04 72 1010.9
20260507112503 67 156 5.0 12.0 0.00 0.04 0.04 72 1010.9
20260507112003 67 152 5.0 11.0 0.00 0.04 0.04 72 1010.9
20260507111504 67 166 4.0 11.0 0.00 0.04 0.04 72 1011.0
20260507111003 67 155 2.0 7.0 0.00 0.04 0.04 72 1011.2
20260507110503 66 170 2.0 9.0 0.00 0.04 0.04 71 1011.1
20260507110003 65 144 2.0 11.0 0.00 0.04 0.04 72 1011.1
20260507105503 65 145 4.0 10.0 0.00 0.04 0.04 72 1011.2
20260507105003 65 166 2.0 6.0 0.00 0.04 0.04 72 1011.2
20260507104504 65 147 5.0 11.0 0.00 0.04 0.04 72 1011.2
20260507104003 65 145 4.0 11.0 0.00 0.04 0.04 72 1011.2
20260507103503 65 145 5.0 13.0 0.00 0.04 0.04 72 1011.1
20260507103003 65 145 3.0 10.0 0.00 0.04 0.04 72 1011.2
20260507102503 65 143 3.0 11.0 0.00 0.04 0.04 72 1011.3
20260507102003 65 139 3.0 10.0 0.00 0.04 0.04 72 1011.2
20260507101503 65 152 3.0 9.0 0.00 0.04 0.04 72 1011.1
20260507101003 65 139 3.0 8.0 0.00 0.04 0.04 72 1011.1
20260507100503 65 153 4.0 10.0 0.00 0.04 0.04 72 1011.2
20260507100003 65 155 4.0 8.0 0.00 0.04 0.04 72 1011.3
20260507095503 64 142 5.0 12.0 0.00 0.04 0.04 72 1011.3
20260507095003 64 127 4.0 12.0 0.00 0.04 0.04 72 1011.2
20260507094503 64 147 7.0 15.0 0.00 0.04 0.04 72 1011.2
20260507094003 64 148 6.0 16.0 0.00 0.04 0.04 72 1011.2
20260507093503 65 143 5.0 13.0 0.00 0.04 0.04 72 1011.1
20260507093003 65 147 4.0 12.0 0.00 0.04 0.04 72 1011.2
20260507092503 65 144 6.0 17.0 0.00 0.04 0.04 72 1011.2
20260507092003 65 138 5.0 14.0 0.00 0.04 0.04 73 1011.1
20260507091503 64 147 6.0 17.0 0.00 0.04 0.04 73 1010.9
20260507091003 64 134 6.0 15.0 0.00 0.04 0.04 73 1010.7
20260507090503 64 141 4.0 13.0 0.00 0.04 0.04 73 1010.9
20260507090004 64 130 4.0 14.0 0.00 0.04 0.04 73 1010.9
20260507085503 64 129 6.0 14.0 0.00 0.04 0.04 73 1010.7
20260507085003 64 136 4.0 14.0 0.00 0.04 0.04 73 1010.6
20260507084503 64 121 4.0 14.0 0.00 0.04 0.04 73 1010.5
20260507084003 63 129 7.0 18.0 0.00 0.04 0.04 73 1010.5
20260507083503 63 134 5.0 13.0 0.00 0.04 0.04 73 1010.2
20260507083003 63 127 7.0 18.0 0.00 0.04 0.04 73 1010.1
20260507082503 63 128 6.0 13.0 0.00 0.04 0.04 73 1010.2
20260507082003 63 121 8.0 17.0 0.00 0.04 0.04 73 1010.2
20260507081503 63 115 5.0 13.0 0.00 0.04 0.04 74 1010.4
20260507081003 63 87 4.0 14.0 0.00 0.04 0.04 74 1010.5
20260507080503 63 91 6.0 18.0 0.00 0.04 0.04 74 1010.3
20260507080003 63 107 6.0 16.0 0.00 0.04 0.04 74 1010.3
20260507075503 63 123 5.0 12.0 0.00 0.04 0.04 74 1010.5
20260507075003 62 135 5.0 13.0 0.00 0.04 0.04 74 1010.8
20260507074503 62 126 4.0 14.0 0.00 0.04 0.04 74 1010.7
20260507074003 63 74 4.0 10.0 0.00 0.04 0.04 74 1010.7
20260507073503 63 106 5.0 13.0 0.00 0.04 0.04 74 1011.0
20260507073003 62 87 5.0 12.0 0.00 0.04 0.04 74 1011.0
20260507072503 62 69 5.0 13.0 0.00 0.04 0.04 74 1011.0
20260507072003 62 79 5.0 12.0 0.00 0.04 0.04 74 1011.2
20260507071503 63 73 5.0 12.0 0.00 0.04 0.04 74 1011.4
20260507071003 62 78 5.0 15.0 0.00 0.04 0.04 74 1011.6
20260507070503 62 56 4.0 9.0 0.00 0.04 0.04 75 1011.7
20260507070005 62 102 2.0 6.0 0.00 0.04 0.04 75 1012.1
20260507065503 62 119 2.0 5.0 0.00 0.04 0.04 75 1012.2
20260507065003 62 87 3.0 12.0 0.00 0.04 0.04 75 1011.8
20260507064503 62 66 3.0 8.0 0.00 0.04 0.04 74 1011.9
20260507064003 62 99 2.0 5.0 0.00 0.04 0.04 74 1012.1
20260507063503 62 63 3.0 10.0 0.00 0.04 0.04 74 1011.9
20260507063003 62 55 3.0 7.0 0.00 0.04 0.04 74 1011.6
20260507062503 62 49 3.0 5.0 0.00 0.04 0.04 74 1011.7
20260507062003 62 59 3.0 5.0 0.00 0.04 0.04 74 1011.8
20260507061503 61 52 4.0 7.0 0.00 0.04 0.04 74 1011.7
20260507061003 61 42 5.0 9.0 0.00 0.04 0.04 74 1011.6
20260507060503 61 40 4.0 7.0 0.00 0.04 0.04 74 1011.4
20260507060003 61 43 4.0 6.0 0.00 0.04 0.04 74 1011.6
20260507055503 61 31 5.0 9.0 0.00 0.04 0.04 74 1011.5
20260507055003 61 31 4.0 7.0 0.00 0.04 0.04 74 1011.4
20260507054503 61 39 4.0 9.0 0.00 0.04 0.04 74 1011.5
20260507054003 61 40 3.0 6.0 0.00 0.04 0.04 74 1011.7
20260507053503 61 47 3.0 6.0 0.00 0.04 0.04 75 1011.6
20260507053003 61 49 4.0 11.0 0.00 0.04 0.04 74 1011.5
20260507052503 61 51 5.0 10.0 0.00 0.04 0.04 74 1011.5
20260507052003 61 71 4.0 8.0 0.00 0.04 0.04 74 1011.4
20260507051503 61 71 2.0 8.0 0.00 0.04 0.04 74 1011.4
20260507051003 61 78 3.0 9.0 0.00 0.04 0.04 75 1011.4
20260507050503 61 64 2.0 7.0 0.00 0.04 0.04 74 1011.3
20260507050004 61 83 2.0 8.0 0.00 0.04 0.04 74 1011.1
20260507045503 61 100 2.0 9.0 0.00 0.04 0.04 74 1010.9
20260507045003 61 71 3.0 9.0 0.00 0.04 0.04 74 1010.5
20260507044503 61 52 6.0 11.0 0.00 0.04 0.04 75 1010.0
20260507044003 60 55 9.0 16.0 0.00 0.04 0.04 74 1009.8
20260507043503 61 55 7.0 14.0 0.00 0.04 0.04 74 1009.6
20260507043003 61 73 8.0 17.0 0.00 0.04 0.04 74 1009.6
20260507042503 61 59 8.0 14.0 0.00 0.04 0.04 74 1009.6
20260507042003 61 52 11.0 17.0 0.00 0.04 0.04 74 1009.8
20260507041503 61 58 9.0 15.0 0.00 0.04 0.04 74 1010.0
20260507041003 61 57 9.0 13.0 0.00 0.04 0.04 74 1010.2
20260507040503 61 54 8.0 13.0 0.02 0.04 0.04 74 1010.3
20260507040003 61 53 6.0 11.0 0.02 0.04 0.04 74 1010.3
20260507035503 61 55 5.0 10.0 0.02 0.04 0.04 74 1010.6
20260507035003 61 58 5.0 11.0 0.02 0.04 0.04 74 1010.4
20260507034503 61 57 5.0 11.0 0.02 0.04 0.04 74 1010.5
20260507034003 61 56 6.0 11.0 0.02 0.04 0.04 74 1010.5
20260507033503 61 52 6.0 13.0 0.02 0.04 0.04 74 1010.3
20260507033003 61 48 6.0 13.0 0.02 0.04 0.04 74 1010.2
20260507032503 61 50 4.0 9.0 0.02 0.04 0.04 74 1010.3
20260507032003 61 59 5.0 9.0 0.02 0.04 0.04 74 1010.3
20260507031503 61 51 6.0 11.0 0.02 0.04 0.04 74 1010.2
20260507031003 61 56 5.0 8.0 0.02 0.04 0.04 74 1010.3
20260507030503 61 57 4.0 6.0 0.00 0.02 0.02 74 1010.6
20260507030003 61 61 1.0 5.0 0.00 0.02 0.02 74 1010.6
20260507025503 61 60 2.0 4.0 0.00 0.02 0.02 74 1010.6
20260507025003 61 60 1.0 5.0 0.00 0.02 0.02 74 1010.6
20260507024503 61 82 1.0 4.0 0.00 0.02 0.02 74 1010.6
20260507024003 61 77 1.0 4.0 0.00 0.02 0.02 74 1010.5
20260507023503 61 86 2.0 7.0 0.00 0.02 0.02 74 1010.4
20260507023003 61 93 2.0 7.0 0.00 0.02 0.02 74 1010.3
20260507022503 62 94 2.0 10.0 0.00 0.02 0.02 74 1010.5
20260507022003 62 124 2.0 9.0 0.00 0.02 0.02 74 1010.4
20260507021503 61 118 3.0 8.0 0.00 0.02 0.02 74 1010.4
20260507021003 61 116 1.0 6.0 0.00 0.02 0.02 74 1010.3
20260507020503 61 64 2.0 7.0 0.02 0.02 0.02 74 1010.2
20260507020003 62 93 3.0 8.0 0.02 0.02 0.02 74 1009.9
20260507015503 62 68 2.0 6.0 0.02 0.02 0.02 74 1009.7
20260507015003 62 70 5.0 10.0 0.02 0.02 0.02 74 1009.5